Гейчай - Уджары

Азербайджан     40°35′04″N   47°41′32″E
темп.,
°C
ветер,
м/с
пор.,
м/с
влажн.,
%
обл.,
%
осадки,
мм/ч
давл.,
гПа
погр.,
м
26 февраля, пт
пт2601:000зсз33650 0.0 103254
04:000зсз356434 0.0 103095
07:00−1з236536 0.0 102957
10:00+3зсз345018 0.0 1028437
13:00+7зсз454525 0.0 1027821
16:00+9зсз574143 0.0 10251090
19:00+7зсз2350100 0.0 102524
22:00+5зюз2353100 0.0 102628
27 февраля, сб
сб2701:00+4с0160100 0.0 102522
04:00+3в116390 0.0 102422
07:00+1ссв01660 0.0 102322
10:00+6з12490 0.0 1023263
13:00+10зсз22380 0.0 1020806
16:00+12з22320 0.0 10171007
19:00+9зсз12420 0.0 101823
22:00+7св12490 0.0 101722
28 февраля, вс
вс2801:00+5в34630 0.0 101673
04:00+4в23820 0.0 101537
07:00+3вюв11840 0.0 101522
10:00+8зсз11600 0.0 1014234
13:00+12зсз35390 0.0 1013857
16:00+15зсз46310 0.0 1011930
19:00+11сз22440 0.0 101322
22:00+9ююз12520 0.0 101522
1 марта, пн
пн101:00+7юв22600 0.0 101635
04:00+6в45660 0.0 101791
07:00+5вюв45770 0.0 1019114
10:00+8ююв456524 0.0 1021537
13:00+12ю344955 0.0 10221162
16:00+12ю775478 0.1 10221334
19:00+9ююв61065100 0.1 1024748
22:00+7юв4867100 0.4 1025855
2 марта, вт
вт201:00+7ююв2370100 0.3 1026482
04:00+6ю0179100 0.6 1026352
07:00+5ююв3485100 0.8 1027350
10:00+5ююв5692100 1.6 1028363
13:00+6юв4581100 0.3 1027530
16:00+7ююв2274100 0.3 1026620
19:00+6ююз0181100 0.1 1026280
22:00+6ююз2371100 0.2 1027617